Regional Weather Roundup
Issued by NWS

Home | Current Version | Previous Version | Text Only | Print | Product List | Glossary Off
Versions: 1 2 3 4 5 6 7 8 9 10 11 12 13 14 15 16 17 18 19 20 21 22 23 24 25 26 27 28 29 30 31 32 33 34 35 36 37 38 39 40 41 42 43 44 45 46 47 48 49 50

000
ASUS43 KLOT 261410
RWRIL

ILLINOIS REGIONAL WEATHER ROUNDUP
NATIONAL WEATHER SERVICE CHICAGO/ROMEOVILLE IL
800 AM CST WED NOV 26 2014

NOTE: "FAIR" INDICATES FEW OR NO CLOUDS BELOW 12,000 FEET WITH NO
SIGNIFICANT WEATHER AND/OR OBSTRUCTIONS TO VISIBILITY.

* THESE STATIONS ARE NOT UNDER NWS QUALITY CONTROL. THEY ALSO MAY NOT
  REPORT WEATHER SUCH AS PRECIPITATION OR FOG.

ILZ001-002-007-009-015-016-024-261500-
NORTHWEST ILLINOIS

CITY           SKY/WX    TMP DP  RH WIND       PRES   REMARKS
MOLINE         CLOUDY    21  18  88 E8        30.06F FOG     WCI  11
STERLING*      PTCLDY    18  16  93 E8        30.11R WCI   7
SAVANNA*       MOCLDY    19  17  91 E5        30.11R FOG     WCI  12
$$

ILZ003-004-008-010-011-017-018-261500-
NORTH CENTRAL ILLINOIS

CITY           SKY/WX    TMP DP  RH WIND       PRES   REMARKS
ROCKFORD       CLOUDY    18  14  84 E9        30.15F FOG     WCI   7
FREEPORT*      FOG       14  12  91 E5        30.13S VSB 1/2 WCI   6
ROCHELLE*      CLOUDY    20  19  95 SE10      30.13S FOG     WCI   9
DE KALB*       CLOUDY    20  18  93 E7        30.13F FOG     WCI  11
PERU*          PTCLDY    22  20  93 SE10      30.13R WCI  11
$$

ILZ005-006-012>014-019>023-261500-
NORTHEAST ILLINOIS

CITY           SKY/WX    TMP DP  RH WIND       PRES   REMARKS
CHICAGO-OHARE  CLOUDY    21  17  84 CALM      30.15R
CHICAGO-MIDWAY CLOUDY    26  20  77 S6        30.16S WCI  19
AURORA         CLOUDY    23  19  85 E8        30.15R FOG     WCI  14
LANSING*       CLOUDY    24  19  81 SE5       30.17S WCI  18
JOLIET*        CLOUDY    23  19  86 E9        30.16S WCI  13
WAUKEGAN       CLOUDY    18  15  88 W3        30.15R FOG
DUPAGE AIRPORT MOCLDY    20  17  88 E7        30.15R FOG     WCI  11
KANKAKEE*      CLOUDY   N/A N/A N/A E8        30.17S
WHEELING       MOCLDY    20  16  84 CALM      30.18R FOG
MORRIS*        CLOUDY    24  23  96 SE9       30.14F FOG     WCI  14
ROMEOVILLE*    CLOUDY    22  19  87 SE5       30.16S WCI  16
NORTHERLY ISL    N/A     26  21  81 S5          N/A  WCI  21
$$

LMZ740>746-261500-
SOUTHERN LAKE MICHIGAN

STATION/POSITION SKY/WX   TEMP    WIND        PRES    VSBY  WAVE
                          AIR SEA DIR/SP/G                  HT/PER
                          (F)     (DEG/KT/KT) (MB)    (MI)  (FT/S)
SOUTHERN BUOY              31 42  180/  6/  8 1021.8F         1/ 3
WAUKEGAN HARBOR            20     300/  2/  4   N/A
HARRISON CRIB              27     130/ 10/ 16   N/A
BURNHAM HARBOR             26     170/  8       N/A
CALUMET HARBOR             25     140/  7/ 11 1020.0R
MICHIGAN CITY              24      60/  6/  8   N/A
$$

ILZ025>027-034>036-040-047-049-050-058-095>099-261500-
WEST-CENTRAL ILLINOIS

CITY           SKY/WX    TMP DP  RH WIND       PRES   REMARKS
QUINCY         CLOUDY    29  24  82 SE10      29.99F WCI  20
GALESBURG*     MOCLDY    24  23  96 E9G16     30.04F WCI  14
MACOMB*        MOCLDY    28  26  95 SE10      30.06F WCI  18
JACKSONVILLE*  MOCLDY    31  27  86 SE14      30.06F WCI  21
PITTSFIELD*    CLOUDY    31  27  88 SE9       30.03F WCI  22
$$

ILZ028>032-037-038-041>044-048-051>054-059>061-261500-
CENTRAL ILLINOIS

CITY           SKY/WX    TMP DP  RH WIND       PRES   REMARKS
PONTIAC        CLOUDY    26  23  90 SE13      30.15S WCI  14
BLOOMINGTON    PTCLDY    24  22  92 SE14      30.12R WCI  12
DECATUR        MOSUNNY   25  22  88 SE9       30.12S WCI  15
PEORIA         MOCLDY    26  21  81 SE7       30.10S WCI  18
LACON*         MOCLDY    21  18  88 SE6       30.12R WCI  13
LINCOLN*       PTCLDY    26  24  91 SE5       30.13S WCI  20
SPRINGFIELD    PTCLDY    28  25  88 SE10      30.09F WCI  19
TAYLORVILLE    CLEAR     27  23  86 SE12      30.10S WCI  16
$$

ILZ033-039-045-046-055>057-062-063-261500-
EAST-CENTRAL ILLINOIS

CITY           SKY/WX    TMP DP  RH WIND       PRES   REMARKS
CHAMPAIGN      MOSUNNY   22  20  92 E8        30.13S WCI  12
DANVILLE*      CLOUDY    25  22  89 E6        30.11S WCI  18
RANTOUL*       CLOUDY    25  22  91 SE3       30.14S FOG
MATTOON        MOSUNNY   24  21  88 SE8       30.13S WCI  15
PARIS*         CLOUDY    25  24  95 E5        30.15S WCI  19
$$

ILZ079-100>102-261500-
SOUTHWEST ILLINOIS

CITY           SKY/WX    TMP DP  RH WIND       PRES   REMARKS
ALTON          MOCLDY    28  27  93 SE12      30.08F WCI  18
BELLEVILLE     PTSUNNY   28  28  99 SE7       30.10S WCI  21
CAHOKIA*       PTSUNNY   30  26  85 SE10      30.08F WCI  21
SPARTA*        SUNNY     28  26  93 SE9       30.12R WCI  19
$$

ILZ064>066-069>071-074>076-080>082-084>086-088>090-092>094-261500-
SOUTH-CENTRAL ILLINOIS

CITY           SKY/WX    TMP DP  RH WIND       PRES   REMARKS
CARBONDALE     SUNNY     25  23  92 SE3       30.12S
CAIRO*         SUNNY     32  30  92 E3        30.13S FOG
EFFINGHAM*     SUNNY     26  23  87 SE6       30.14S WCI  20
MARION         MOSUNNY   28  27  93 SE7       30.14S WCI  21
MT. VERNON     SUNNY     27  21  80 E5        30.13S WCI  21
CENTRALIA*     SUNNY     28  24  86 E5        30.11F WCI  22
SALEM*           N/A     28  25  86 SE6       30.12S WCI  22
METROPOLIS*    SUNNY     29  29 100 CALM        N/A  FOG
$$

ILZ067-068-072-073-078-083-087-091-261500-
SOUTHEAST ILLINOIS

CITY           SKY/WX    TMP DP  RH WIND       PRES   REMARKS
LAWRENCEVILLE  MOSUNNY   26  24  92 NE3       30.16S FOG
FLORA*         MOSUNNY   25  24  97 E3        30.15S FOG
FAIRFIELD*     SUNNY     27  25  92 SE3       30.14S
HARRISBURG*    SUNNY     28  28 100 E5        30.15F FOG     WCI  23
ROBINSON*      PTSUNNY   26  24  95 E3        30.16F
CARMI*         MOSUNNY   25  25 100 E3        30.14F FOG
$$

ABBREVIATIONS USED IN REMARKS
   TC - TEMPERATURE IN CELSIUS
  WCI - WIND CHILL INDEX
   HX - HEAT INDEX
  VSB - VISIBILITY
$$




USA.gov is the U.S. government's official web portal to all federal, state and local government web resources and services.